Location: Elstree
(51.6403°N, 0.2969°W)
Time: 18:49:31
(UTC+00:00)

USA 234 - Pass Details

Date: 03 March 2021
Orbit: 1102 x 1105 km, 123.0° (Epoch: 16 April)

Event Time Altitude Azimuth Distance (km) Brightness Sun altitude
Exits shadow 21:27:19 76° 301° (WNW) 1,138 3.3 -33.4°
Drops below altitude 10° 21:33:30 10° 252° (WSW) 2,961 5.8 -34.2°
Sets 21:35:58 0° 251° (WSW) 3,917 6.5 -34.5°
